timestamp,surface_pressure_avg,surface_temp_avg,battery_voltage,lat,long
2021-06-01 00:09:01+00:00,213.2131,8.5,12.97,47.84626,-54.09684
2021-06-01 00:19:01+00:00,216.2164,8.58,12.73,47.84626,-54.09684
2021-06-01 00:29:01+00:00,223.6397,8.6,12.73,47.84626,-54.09684
2021-06-01 00:39:01+00:00,230.2481,8.63,12.73,47.84626,-54.09684
2021-06-01 00:49:01+00:00,234.2798,8.7,12.73,47.84626,-54.09684
2021-06-01 00:59:01+00:00,240.9497,8.7,12.73,47.84626,-54.09684
2021-06-01 01:09:01+00:00,249.1698,8.7,12.73,47.84626,-54.09684
2021-06-01 01:19:01+00:00,255.4131,8.7,12.65,47.84626,-54.09684
2021-06-01 01:29:01+00:00,259.3348,8.7,12.65,47.84626,-54.09684
2021-06-01 01:39:01+00:00,266.3163,8.7,12.65,47.84626,-54.09684
2021-06-01 01:49:01+00:00,275.703,8.7,12.65,47.84626,-54.09684
2021-06-01 01:59:01+00:00,284.718,8.7,12.65,47.84626,-54.09684
2021-06-01 02:09:01+00:00,291.7497,8.7,12.65,47.84626,-54.09684
2021-06-01 02:19:01+00:00,298.3097,8.7,12.65,47.84626,-54.09684
2021-06-01 02:29:01+00:00,304.0447,8.7,12.65,47.84626,-54.09684
2021-06-01 02:39:01+00:00,310.3596,8.65,12.65,47.84626,-54.09684
2021-06-01 02:49:01+00:00,315.243,8.6,12.65,47.84626,-54.09684
2021-06-01 02:59:01+00:00,317.9063,8.6,12.65,47.84626,-54.09684
2021-06-01 03:09:01+00:00,321.3347,8.6,12.65,47.84626,-54.09684
2021-06-01 03:19:01+00:00,325.2196,8.6,12.65,47.84626,-54.09684
2021-06-01 03:29:01+00:00,328.1414,8.6,12.65,47.84626,-54.09684
2021-06-01 03:39:01+00:00,329.3264,8.59,12.65,47.84626,-54.09684
2021-06-01 03:49:01+00:00,330.5613,8.58,12.65,47.84626,-54.09684
2021-06-01 03:59:01+00:00,332.9913,8.57,12.65,47.84626,-54.09684
2021-06-01 04:09:01+00:00,333.6346,8.58,12.65,47.84626,-54.09684
2021-06-01 04:19:00+00:00,336.413,8.58,12.65,47.84626,-54.09684
2021-06-01 04:29:00+00:00,339.843,8.56,12.65,47.84626,-54.09684
2021-06-01 04:39:00+00:00,336.8280000000001,8.5,12.65,47.84626,-54.09684
2021-06-01 04:49:00+00:00,332.0313,8.5,12.65,47.84626,-54.09684
2021-06-01 04:59:00+00:00,330.8297,8.5,12.65,47.84626,-54.09684
2021-06-01 05:09:00+00:00,331.7863,8.5,12.65,47.84626,-54.09684
2021-06-01 05:19:00+00:00,327.6113,8.4,12.65,47.84626,-54.09684
2021-06-01 05:29:00+00:00,321.5264,8.4,12.65,47.84626,-54.09684
2021-06-01 05:39:00+00:00,321.6346,8.4,12.65,47.84626,-54.09684
2021-06-01 05:49:00+00:00,324.5381,8.4,12.65,47.84626,-54.09684
2021-06-01 05:59:00+00:00,319.6846,8.39,12.65,47.84626,-54.09684
2021-06-01 06:09:00+00:00,310.8697,8.3,12.65,47.84626,-54.09684
2021-06-01 06:19:00+00:00,305.8497,8.3,12.57,47.84626,-54.09684
2021-06-01 06:29:00+00:00,301.5797,8.3,12.57,47.84626,-54.09684
2021-06-01 06:39:00+00:00,289.9097,8.3,12.57,47.84626,-54.09684
2021-06-01 06:49:00+00:00,281.9896,8.3,12.57,47.84626,-54.09684
2021-06-01 06:59:00+00:00,280.6614,8.3,12.57,47.84626,-54.09684
2021-06-01 07:09:00+00:00,275.6297,8.3,12.57,47.84626,-54.09684
2021-06-01 07:19:01+00:00,264.7981,8.36,12.57,47.84626,-54.09684
2021-06-01 07:29:01+00:00,259.863,8.39,12.57,47.84626,-54.09684
2021-06-01 07:39:01+00:00,255.2714,8.39,12.57,47.84626,-54.09684
2021-06-01 07:49:01+00:00,243.7147,8.39,12.57,47.84626,-54.09684
2021-06-01 07:59:01+00:00,229.8481,8.4,12.57,47.84626,-54.09684
2021-06-01 08:09:01+00:00,222.5931,8.4,12.57,47.84626,-54.09684
2021-06-01 08:19:01+00:00,216.9048,8.4,12.57,47.84626,-54.09684
2021-06-01 08:29:01+00:00,209.6764,8.4,12.57,47.84626,-54.09684
2021-06-01 08:39:01+00:00,202.4814,8.4,12.57,47.84626,-54.09684
2021-06-01 08:49:01+00:00,200.4731,8.4,12.57,47.84626,-54.09684
2021-06-01 08:59:01+00:00,201.2131,8.4,12.57,47.84626,-54.09684
2021-06-01 09:09:01+00:00,199.0548,8.4,12.57,47.84626,-54.09684
2021-06-01 09:19:01+00:00,199.8548,8.4,12.57,47.84626,-54.09684
2021-06-01 09:29:01+00:00,202.3981,8.4,12.57,47.84626,-54.09684
2021-06-01 09:39:01+00:00,200.1265,8.39,12.57,47.84626,-54.09684
2021-06-01 09:49:01+00:00,194.4731,8.39,12.57,47.84626,-54.09684
2021-06-01 09:59:01+00:00,194.0048,8.4,12.57,47.84626,-54.09684
2021-06-01 10:09:01+00:00,198.1098,8.4,12.57,47.84626,-54.09684
2021-06-01 10:19:00+00:00,199.0298,8.4,12.57,47.84626,-54.09684
2021-06-01 10:29:00+00:00,198.2681,8.4,12.57,47.84626,-54.09684
2021-06-01 10:39:00+00:00,201.8098,8.4,12.57,47.84626,-54.09684
2021-06-01 10:49:00+00:00,203.8164,8.4,12.57,47.84626,-54.09684
2021-06-01 10:59:00+00:00,202.7614,8.4,12.57,47.84626,-54.09684
2021-06-01 11:09:00+00:00,207.4364,8.5,12.57,47.84626,-54.09684
2021-06-01 11:19:01+00:00,208.5098,8.59,12.65,47.84626,-54.09684
2021-06-01 11:29:01+00:00,207.7097,8.64,12.65,47.84626,-54.09684
2021-06-01 11:39:01+00:00,213.0098,8.68,12.65,47.84626,-54.09684
2021-06-01 11:49:01+00:00,214.5498,8.69,12.65,47.84626,-54.09684
2021-06-01 11:59:01+00:00,209.3031,8.72,12.65,47.84626,-54.09684
2021-06-01 12:09:01+00:00,208.7881,8.8,12.65,47.84626,-54.09684
2021-06-01 12:19:01+00:00,216.1231,8.81,12.65,47.84626,-54.09684
2021-06-01 12:29:01+00:00,220.0131,8.87,12.65,47.84626,-54.09684
2021-06-01 12:39:01+00:00,220.2448,8.89,12.65,47.84626,-54.09684
2021-06-01 12:49:01+00:00,221.9631,8.89,12.65,47.84626,-54.09684
2021-06-01 12:59:01+00:00,227.5148,8.8,12.65,47.84626,-54.09684
2021-06-01 13:09:01+00:00,232.0831,8.8,12.65,47.84626,-54.09684
2021-06-01 13:19:01+00:00,235.3031,8.8,12.65,47.84626,-54.09684
2021-06-01 13:29:01+00:00,243.6081,8.8,12.65,47.84626,-54.09684
2021-06-01 13:39:01+00:00,248.3698,8.79,12.65,47.84626,-54.09684
2021-06-01 13:49:01+00:00,250.9214,8.8,12.65,47.84626,-54.09684
2021-06-01 13:59:01+00:00,253.4048,8.81,12.65,47.84626,-54.09684
2021-06-01 14:09:01+00:00,260.6014,8.88,12.65,47.84626,-54.09684
2021-06-01 14:19:01+00:00,264.9664,8.9,13.13,47.84626,-54.09684
2021-06-01 14:29:01+00:00,268.6147,8.9,13.13,47.84626,-54.09684
2021-06-01 14:39:01+00:00,271.6564,8.9,13.13,47.84626,-54.09684
2021-06-01 14:49:01+00:00,277.9514,8.9,13.13,47.84626,-54.09684
2021-06-01 14:59:01+00:00,281.4914,8.8,13.13,47.84626,-54.09684
2021-06-01 15:09:01+00:00,288.1346,8.8,13.13,47.84626,-54.09684
2021-06-01 15:19:00+00:00,288.8081,8.8,13.21,47.84626,-54.09684
2021-06-01 15:29:00+00:00,291.0464,8.84,13.21,47.84626,-54.09684
2021-06-01 15:39:00+00:00,296.2029,8.9,13.21,47.84626,-54.09684
2021-06-01 15:49:00+00:00,303.2697,8.9,13.21,47.84626,-54.09684
2021-06-01 15:59:00+00:00,300.273,8.9,13.21,47.84626,-54.09684
2021-06-01 16:09:00+00:00,297.993,8.9,13.21,47.84626,-54.09684
2021-06-01 16:19:00+00:00,302.5596,8.9,13.21,47.84626,-54.09684
2021-06-01 16:29:00+00:00,305.5197,8.89,13.21,47.84626,-54.09684
2021-06-01 16:39:00+00:00,304.2197,8.9,13.21,47.84626,-54.09684
2021-06-01 16:49:00+00:00,308.1764,8.89,13.21,47.84626,-54.09684
2021-06-01 16:59:00+00:00,314.7847,8.8,13.21,47.84626,-54.09684
2021-06-01 17:09:00+00:00,314.0547,8.74,13.21,47.84626,-54.09684
2021-06-01 17:19:01+00:00,314.0547,8.79,13.68,47.84626,-54.09684
2021-06-01 17:29:01+00:00,317.0263,8.8,13.68,47.84626,-54.09684
2021-06-01 17:39:01+00:00,316.3113,8.8,13.68,47.84626,-54.09684
2021-06-01 17:49:01+00:00,310.9996,8.79,13.68,47.84626,-54.09684
2021-06-01 17:59:01+00:00,308.953,8.77,13.68,47.84626,-54.09684
2021-06-01 18:09:01+00:00,306.0013,8.72,13.68,47.84626,-54.09684
2021-06-01 18:19:00+00:00,301.4697,8.7,13.84,47.84626,-54.09684
2021-06-01 18:29:00+00:00,298.1897,8.7,13.84,47.84626,-54.09684
2021-06-01 18:39:00+00:00,297.7364,8.6,13.84,47.84626,-54.09684
2021-06-01 18:49:00+00:00,293.968,8.59,13.84,47.84626,-54.09684
2021-06-01 18:59:00+00:00,285.988,8.6,13.84,47.84626,-54.09684
2021-06-01 19:09:00+00:00,281.053,8.6,13.84,47.84626,-54.09684
2021-06-01 19:19:01+00:00,279.9198,8.5,14.08,47.84626,-54.09684
2021-06-01 19:29:01+00:00,271.6647,8.5,14.08,47.84626,-54.09684
2021-06-01 19:39:01+00:00,258.9398,8.55,14.08,47.84626,-54.09684
2021-06-01 19:49:01+00:00,251.2681,8.6,14.08,47.84626,-54.09684
2021-06-01 19:59:01+00:00,245.6164,8.59,14.08,47.84626,-54.09684
2021-06-01 20:09:01+00:00,235.3064,8.5,14.08,47.84626,-54.09684
2021-06-01 20:19:00+00:00,227.3648,8.5,13.84,47.84626,-54.09684
2021-06-01 20:29:00+00:00,227.8881,8.5,13.84,47.84626,-54.09684
2021-06-01 20:39:00+00:00,224.2581,8.52,13.84,47.84626,-54.09684
2021-06-01 20:49:00+00:00,214.0498,8.6,13.84,47.84626,-54.09684
2021-06-01 20:59:00+00:00,211.0782,8.69,13.84,47.84626,-54.09684
2021-06-01 21:09:00+00:00,213.1481,8.7,13.84,47.84626,-54.09684
2021-06-01 21:19:01+00:00,210.3664,8.72,13.84,47.84626,-54.09684
2021-06-01 21:29:01+00:00,206.1265,8.8,13.84,47.84626,-54.09684
2021-06-01 21:39:01+00:00,205.7681,8.8,13.84,47.84626,-54.09684
2021-06-01 21:49:01+00:00,206.7081,8.87,13.84,47.84626,-54.09684
2021-06-01 21:59:01+00:00,205.3447,8.9,13.84,47.84626,-54.09684
2021-06-01 22:09:01+00:00,202.4248,8.9,13.84,47.84626,-54.09684
2021-06-01 22:19:01+00:00,204.8598,8.9,13.53,47.84626,-54.09684
2021-06-01 22:29:01+00:00,207.9714,8.9,13.53,47.84626,-54.09684
2021-06-01 22:39:01+00:00,209.2531,8.9,13.53,47.84626,-54.09684
2021-06-01 22:49:01+00:00,211.1348,8.9,13.53,47.84626,-54.09684
2021-06-01 22:59:01+00:00,211.1481,8.9,13.53,47.84626,-54.09684
2021-06-01 23:09:01+00:00,211.6248,8.9,13.53,47.84626,-54.09684
2021-06-01 23:19:01+00:00,214.0081,8.9,13.29,47.84626,-54.09684
2021-06-01 23:29:01+00:00,215.4448,8.9,13.29,47.84626,-54.09684
2021-06-01 23:39:01+00:00,213.7981,8.9,13.29,47.84626,-54.09684
2021-06-01 23:49:01+00:00,213.3665,8.9,13.29,47.84626,-54.09684
2021-06-01 23:59:01+00:00,215.1298,8.87,13.29,47.84626,-54.09684
